[[{"header":{"parameterUnit":"m.s-1","parameterCategory":1,"la1":30.2991,"la2":30.254,"lo1":-89.0895,"lo2":-89.0444,"dy":0.0017,"dx":0.0017,"nx":28,"ny":28,"refTime":"2024-03-29T09:00:00:Z","depth":0,"parameterNumber":2,"parameterNumberName":"U-component_of_WINDS"},"data":[0,0,0,0,0,0,0,0,0,0,0,0,0,0,0,0,0,0,0,0,0,0,0,0,0,0,0,0,0,0,0,0,0,0,0,0,0,0,0,0,0,0,0,0,0,0,0,0,0,0,0,0,0,0,0,0,0,0,-1.6013,-1.6014,0,-1.6039,-1.6039,-1.6039,-1.6026,-1.6025,-1.6024,-1.6024,-1.6051,-1.6053,-1.6054,0,0,0,0,0,0,0,0,0,0,0,0,0,-1.5955,-1.5956,-1.6013,-1.6014,-1.6014,-1.6039,-1.6039,-1.604,-1.6026,-1.6025,-1.6024,-1.6023,-1.6051,-1.6053,-1.6054,0,0,0,0,0,0,0,0,0,0,0,0,0,-1.5981,-1.5957,-1.6013,-1.601,-1.601,-1.6039,-1.6039,-1.604,-1.6026,-1.6025,-1.6024,-1.6023,-1.605,-1.6052,-1.6054,-1.6088,0,0,-1.6061,-1.6062,0,0,0,0,0,0,0,0,-1.5979,-1.5983,-1.601,-1.601,-1.601,-1.6028,-1.6029,-1.6056,-1.6026,-1.602,-1.6024,-1.6022,-1.6045,-1.6047,-1.6054,-1.609,-1.6091,-1.6061,-1.6062,-1.6063,-1.6064,0,0,0,0,0,0,0,-1.5978,-1.5982,-1.6024,-1.6011,-1.6011,-1.6008,-1.6011,-1.6034,-1.6038,-1.6021,-1.602,-1.6023,-1.6044,-1.6052,-1.6055,-1.6091,-1.6061,-1.6063,-1.6064,-1.6065,-1.6156,-1.6157,0,0,0,0,0,0,-1.5976,-1.598,-1.6023,-1.6024,-1.5992,-1.601,-1.6013,-1.6023,-1.6038,-1.6039,-1.6024,-1.6022,-1.6049,-1.6052,-1.6056,-1.6096,-1.6063,-1.6065,-1.6066,-1.6155,-1.6156,-1.6157,0,0,0,0,0,0,-1.5974,-1.598,-1.6022,-1.6002,-1.6007,-1.6012,-1.6024,-1.6025,-1.6032,-1.604,-1.6041,-1.6031,-1.6048,-1.6053,-1.608,-1.6097,-1.6066,-1.6068,-1.6153,-1.6155,-1.6157,-1.6177,0,0,0,0,0,0,-1.5973,-1.5979,-1.5992,-1.6002,-1.6008,-1.6045,-1.6025,-1.6026,-1.6036,-1.6034,-1.6047,-1.6048,-1.6048,-1.6077,-1.6082,-1.6099,-1.607,-1.6152,-1.6154,-1.6156,-1.6175,-1.6179,-1.6183,0,0,0,0,0,-1.5971,-1.5997,-1.5992,-1.5997,-1.6024,-1.6046,-1.605,-1.6049,-1.6037,-1.605,-1.6055,-1.6047,-1.6094,-1.608,-1.6086,-1.6103,-1.6151,-1.6153,-1.6156,-1.6173,-1.6178,-1.6183,0,0,0,0,0,0,-1.5988,-1.5998,-1.5993,-1.6023,-1.6034,-1.6044,-1.606,-1.6054,-1.6069,-1.6067,-1.6066,-1.6069,-1.6097,-1.6103,-1.6087,-1.6137,-1.6121,-1.6125,-1.6132,-1.6137,-1.6141,-1.6139,-1.6071,0,0,0,0,0,-1.5995,-1.6012,-1.602,-1.6046,-1.6051,-1.6055,-1.6065,-1.6063,-1.6074,-1.6079,-1.6086,-1.6098,-1.6115,-1.6126,-1.6143,-1.6176,-1.6178,-1.6191,-1.6195,-1.6198,-1.6201,-1.6219,-1.6225,-1.6166,-1.6166,-1.6166,0,0,-1.6011,-1.6018,-1.6029,-1.6049,-1.6058,-1.6075,-1.6059,-1.6078,-1.6092,-1.6082,-1.6108,-1.6114,-1.6127,-1.6157,-1.6171,-1.6163,-1.6218,-1.6202,-1.6204,-1.6205,-1.6223,-1.6228,-1.6233,-1.6168,-1.6167,-1.6167,0,0,-1.6047,-1.6055,-1.6077,-1.6085,-1.6097,-1.61,-1.6105,-1.6116,-1.6119,-1.6145,-1.6138,-1.6155,-1.6185,-1.6194,-1.6203,-1.6244,-1.6238,-1.625,-1.627,-1.6288,-1.6293,-1.6297,-1.6311,-1.6316,-1.6253,-1.6253,-1.6253,0,-1.6065,-1.6091,-1.6089,-1.6109,-1.6119,-1.611,-1.6133,-1.6141,-1.6159,-1.6166,-1.6157,-1.6194,-1.6202,-1.6235,-1.6245,-1.6253,-1.6259,-1.6248,-1.6292,-1.6296,-1.63,-1.6314,-1.6319,-1.6254,-1.6254,-1.6254,-1.6254,0,-1.6112,-1.613,-1.6147,-1.6163,-1.6174,-1.6196,-1.6198,-1.621,-1.6207,-1.6211,-1.6238,-1.6247,-1.6265,-1.6273,-1.6271,-1.6306,-1.63,-1.6292,-1.6275,-1.6307,-1.632,-1.6325,-1.6256,-1.6256,-1.6255,-1.6255,0,0,-1.616,-1.6174,-1.6181,-1.6188,-1.6201,-1.6215,-1.6237,-1.6254,-1.6264,-1.6277,-1.6295,-1.6321,-1.6313,-1.6323,-1.6322,-1.6338,-1.6369,-1.6327,-1.6327,-1.6334,-1.6408,-1.6414,-1.642,-1.6366,-1.6367,-1.6367,-1.6406,0,-1.6197,-1.6233,-1.6232,-1.6266,-1.6283,-1.6276,-1.6295,-1.6305,-1.6309,-1.6325,-1.6329,-1.6347,-1.6336,-1.6342,-1.6357,-1.6362,-1.6384,-1.636,-1.6383,-1.6383,-1.6379,-1.6426,-1.6433,-1.6469,-1.6411,-1.6412,-1.6413,0,-1.6245,-1.6258,-1.6294,-1.6304,-1.6312,-1.6328,-1.6344,-1.6359,-1.6371,-1.6373,-1.6384,-1.6381,-1.6404,-1.6387,-1.6418,-1.6401,-1.6411,-1.6415,-1.6417,-1.6418,-1.64,-1.6429,-1.6481,-1.6486,-1.6421,-1.642,-1.642,0,-1.6276,-1.6303,-1.6328,-1.6334,-1.6347,-1.6359,-1.6365,-1.6376,-1.6387,-1.6401,-1.6408,-1.6425,-1.6434,-1.6448,-1.645,-1.6437,-1.6481,-1.6464,-1.6483,-1.6483,-1.6492,-1.6491,-1.6545,-1.6499,-1.6499,-1.6499,-1.6499,0,-1.6317,-1.6339,-1.6341,-1.6357,-1.6381,-1.6381,-1.6405,-1.641,-1.642,-1.6437,-1.6432,-1.6448,-1.645,-1.6466,-1.6468,-1.6493,-1.6498,-1.65,-1.65,-1.65,-1.65,-1.6506,-1.6504,-1.65,-1.65,-1.65,-1.65,0,-1.6356,-1.6358,-1.6384,-1.6395,-1.6398,-1.6415,-1.6424,-1.6439,-1.6443,-1.6464,-1.6469,-1.6475,-1.6494,-1.6497,-1.652,-1.6521,-1.6552,-1.655,-1.6547,-1.6547,-1.6565,-1.6563,-1.6625,-1.6633,-1.6582,-1.6582,-1.6583,0,-1.6382,-1.6398,-1.641,-1.6421,-1.6427,-1.6444,-1.6454,-1.6455,-1.6466,-1.6481,-1.6494,-1.6513,-1.6528,-1.6559,-1.6566,-1.6583,-1.6581,-1.6602,-1.6584,-1.6583,-1.6581,-1.658,-1.6582,-1.6605,-1.6605,-1.6606,-1.6606,0,-1.6428,-1.6428,-1.6443,-1.6458,-1.6471,-1.6483,-1.6495,-1.6504,-1.6506,-1.6519,-1.6538,-1.655,-1.6573,-1.6591,-1.6609,-1.6616,-1.6612,-1.6612,-1.6617,-1.6617,-1.6615,-1.6616,-1.6556,-1.661,-1.661,-1.661,-1.6609,-1.6609,-1.6461,-1.6475,-1.6485,-1.6502,-1.6511,-1.6522,-1.6536,-1.6541,-1.6557,-1.6575,-1.6575,-1.6596,-1.6608,-1.6631,-1.664,-1.6657,-1.665,-1.6658,-1.666,-1.6661,-1.6663,-1.6612,-1.666,-1.666,-1.666,-1.666,-1.6659,0,-1.6506,-1.6512,-1.6528,-1.6544,-1.6557,-1.6551,-1.6564,-1.6576,-1.6594,-1.6606,-1.662,-1.6642,-1.6661,-1.6669,-1.6687,-1.6699,-1.6697,-1.6703,-1.6702,-1.6704,-1.6668,-1.6661,-1.6704,-1.6704,-1.6704,-1.6704,-1.6704,-1.6704,-1.6531,-1.6555,-1.6557,-1.6585,-1.6591,-1.6611,-1.6619,-1.663,-1.6638,-1.6663,-1.6678,-1.6683,-1.6693,-1.6712,-1.6728,-1.673,-1.6737,-1.6744,-1.6745,-1.6711,-1.6707,-1.6702,-1.6696,-1.6746,-1.6746,-1.678,-1.6781,-1.6781]},{"header":{"parameterUnit":"m.s-1","parameterCategory":1,"la1":30.2991,"la2":30.254,"lo1":-89.0895,"lo2":-89.0444,"dy":0.0017,"dx":0.0017,"nx":28,"ny":28,"refTime":"2024-03-29T09:00:00:Z","depth":0,"parameterNumber":3,"parameterNumberName":"V-component_of_WINDS"},"data":[0,0,0,0,0,0,0,0,0,0,0,0,0,0,0,0,0,0,0,0,0,0,0,0,0,0,0,0,0,0,0,0,0,0,0,0,0,0,0,0,0,0,0,0,0,0,0,0,0,0,0,0,0,0,0,0,0,0,4.2686,4.2687,0,4.2767,4.2768,4.2769,4.2731,4.2729,4.2727,4.2725,4.2802,4.2806,4.281,0,0,0,0,0,0,0,0,0,0,0,0,0,4.2491,4.2495,4.2686,4.2687,4.2688,4.2767,4.2768,4.2769,4.2731,4.2729,4.2726,4.2724,4.2801,4.2806,4.281,0,0,0,0,0,0,0,0,0,0,0,0,0,4.2574,4.2496,4.2686,4.2679,4.2679,4.2767,4.2768,4.277,4.2732,4.2729,4.2726,4.2723,4.2799,4.2805,4.2811,4.2909,0,0,4.2829,4.2832,0,0,0,0,0,0,0,0,4.2569,4.2581,4.2679,4.2679,4.268,4.2736,4.2728,4.2816,4.2733,4.2711,4.2725,4.2721,4.2782,4.2789,4.2811,4.2913,4.2916,4.283,4.2833,4.2836,4.2838,0,0,0,0,0,0,0,4.2564,4.2577,4.2718,4.268,4.2681,4.2669,4.2678,4.2744,4.2763,4.2713,4.2711,4.2721,4.2782,4.2806,4.2813,4.2917,4.283,4.2835,4.2839,4.2841,4.3101,4.3104,0,0,0,0,0,0,4.2559,4.2573,4.2715,4.272,4.2616,4.2675,4.2685,4.2721,4.2762,4.2766,4.2724,4.2719,4.2797,4.2806,4.2815,4.2931,4.2836,4.2841,4.2845,4.3097,4.3101,4.3105,0,0,0,0,0,0,4.2555,4.2572,4.2712,4.2646,4.2663,4.2682,4.2723,4.2724,4.2748,4.277,4.2772,4.2745,4.2795,4.2807,4.2886,4.2933,4.2844,4.285,4.3093,4.3098,4.3103,4.3165,0,0,0,0,0,0,4.255,4.2571,4.261,4.2647,4.2667,4.2783,4.2726,4.2728,4.2759,4.2754,4.2791,4.2794,4.2793,4.2877,4.2892,4.294,4.2854,4.3089,4.3096,4.3102,4.3158,4.3171,4.3182,0,0,0,0,0,4.2543,4.2623,4.2612,4.263,4.2716,4.2786,4.2797,4.2797,4.2763,4.2801,4.2815,4.2793,4.2926,4.2886,4.2902,4.2952,4.3086,4.3094,4.3101,4.3153,4.3169,4.3182,0,0,0,0,0,0,4.2589,4.2628,4.2616,4.2712,4.2746,4.278,4.2828,4.2814,4.2857,4.285,4.2846,4.2854,4.2936,4.2952,4.2906,4.3048,4.3001,4.3012,4.3035,4.305,4.3061,4.3055,4.2859,0,0,0,0,0,4.2611,4.2667,4.2697,4.2778,4.2796,4.2809,4.284,4.2837,4.2871,4.2885,4.2905,4.2938,4.2987,4.3019,4.3066,4.3161,4.3167,4.3203,4.3215,4.3225,4.3234,4.3283,4.3299,4.3129,4.3129,4.3129,0,0,4.2655,4.2684,4.2719,4.2788,4.2814,4.287,4.2822,4.2883,4.2923,4.2894,4.297,4.2985,4.3021,4.3109,4.3148,4.3124,4.3282,4.3234,4.3242,4.3246,4.3292,4.3308,4.3322,4.3135,4.3134,4.3133,0,0,4.2765,4.2793,4.2863,4.289,4.2932,4.294,4.2957,4.2993,4.3002,4.3079,4.3058,4.3104,4.319,4.3216,4.324,4.3359,4.3339,4.3374,4.3435,4.3483,4.3496,4.3508,4.3548,4.3563,4.3383,4.3384,4.3384,0,4.2814,4.2899,4.29,4.2963,4.2993,4.2971,4.304,4.3066,4.3119,4.3139,4.3113,4.3219,4.3242,4.3334,4.3363,4.3384,4.3401,4.3369,4.3495,4.3507,4.3517,4.3556,4.3571,4.3387,4.3387,4.3387,4.3386,0,4.2957,4.3016,4.3067,4.3121,4.3157,4.3223,4.3231,4.3267,4.326,4.327,4.3347,4.3374,4.3425,4.3447,4.3441,4.3537,4.3521,4.3495,4.3447,4.3538,4.3573,4.3588,4.3393,4.3392,4.339,4.3389,0,0,4.3098,4.3151,4.317,4.3193,4.3237,4.3281,4.3345,4.3396,4.3426,4.3463,4.3515,4.3587,4.3563,4.3591,4.3587,4.363,4.3719,4.3598,4.3599,4.3618,4.3825,4.3843,4.386,4.3707,4.371,4.3712,4.3821,0,4.3209,4.3322,4.3324,4.3427,4.348,4.346,4.3515,4.3546,4.3557,4.3602,4.3613,4.3664,4.363,4.3646,4.3687,4.37,4.3761,4.3692,4.3752,4.3755,4.3743,4.3879,4.3899,4.4001,4.3835,4.3838,4.384,0,4.3354,4.3397,4.3506,4.3541,4.3563,4.3613,4.3659,4.3703,4.3737,4.3742,4.3773,4.3763,4.3825,4.3776,4.386,4.3814,4.3839,4.3848,4.3852,4.3856,4.3801,4.3885,4.4033,4.4048,4.3862,4.386,4.3859,0,4.3443,4.3528,4.3604,4.3625,4.3668,4.3703,4.3722,4.3754,4.3784,4.3824,4.3843,4.3889,4.3914,4.3949,4.395,4.3915,4.4034,4.3986,4.4038,4.4038,4.4063,4.4061,4.4215,4.4082,4.4082,4.4081,4.4081,0,4.3566,4.3632,4.3645,4.3691,4.3765,4.3765,4.3837,4.3853,4.3881,4.3928,4.3913,4.3957,4.3958,4.4002,4.4004,4.4072,4.4083,4.4087,4.4087,4.4088,4.4087,4.4103,4.4095,4.4085,4.4085,4.4084,4.4083,0,4.3677,4.3688,4.3769,4.3804,4.3814,4.3866,4.3894,4.3937,4.3947,4.4007,4.4021,4.4035,4.4086,4.4092,4.4152,4.4152,4.4234,4.4227,4.4223,4.4221,4.4272,4.4267,4.444,4.4462,4.4316,4.4318,4.4319,0,4.3754,4.3805,4.3845,4.3877,4.3898,4.3949,4.398,4.3982,4.4014,4.4057,4.4094,4.4144,4.4185,4.4267,4.4282,4.4327,4.4319,4.4377,4.4325,4.4325,4.4317,4.4314,4.4318,4.4386,4.4388,4.4389,4.439,0,4.3889,4.3892,4.3938,4.3987,4.4025,4.4062,4.4098,4.4124,4.413,4.4167,4.422,4.4251,4.4313,4.4362,4.4406,4.4423,4.4407,4.4406,4.442,4.4421,4.4417,4.4418,4.4248,4.4402,4.4401,4.44,4.4399,4.4399,4.3984,4.4028,4.4063,4.4115,4.4142,4.4175,4.4217,4.4232,4.4277,4.4328,4.4326,4.4384,4.4415,4.4473,4.4493,4.4537,4.4517,4.4538,4.4543,4.4548,4.4552,4.4411,4.4545,4.4545,4.4544,4.4544,4.4544,0,4.4116,4.4138,4.4186,4.4236,4.4276,4.426,4.4298,4.4332,4.4384,4.4415,4.4455,4.4515,4.4563,4.4581,4.4627,4.4658,4.4652,4.467,4.4667,4.4671,4.4568,4.455,4.4674,4.4674,4.4674,4.4674,4.4674,4.4674,4.419,4.4263,4.427,4.4355,4.4375,4.4434,4.4456,4.4486,4.4511,4.4579,4.4619,4.4631,4.4657,4.4704,4.4746,4.475,4.4766,4.4787,4.4788,4.4691,4.4678,4.4665,4.4649,4.4792,4.4792,4.4887,4.4888,4.4888]}]]